Year,Month,Day,Hour,Minute,Value (Times are PST for temperature in C)
2015,08,11,00,00,18.00
2015,08,11,00,01,18.00
2015,08,11,00,02,18.10
2015,08,11,00,03,18.10
2015,08,11,00,04,18.10
2015,08,11,00,05,18.20
2015,08,11,00,06,18.20
2015,08,11,00,07,18.20
2015,08,11,00,08,18.30
2015,08,11,00,09,18.30
2015,08,11,00,10,18.30
2015,08,11,00,11,18.40
2015,08,11,00,12,18.40
2015,08,11,00,13,18.40
2015,08,11,00,14,18.40
2015,08,11,00,15,18.50
2015,08,11,00,16,18.40
2015,08,11,00,17,18.40
2015,08,11,00,18,18.40
2015,08,11,00,19,18.40
2015,08,11,00,20,18.40
2015,08,11,00,21,18.30
2015,08,11,00,22,18.30
2015,08,11,00,23,18.30
2015,08,11,00,24,18.30
2015,08,11,00,25,18.30
2015,08,11,00,26,18.30
2015,08,11,00,27,18.30
2015,08,11,00,28,18.30
2015,08,11,00,29,18.30
2015,08,11,00,30,18.40
2015,08,11,00,31,18.40
2015,08,11,00,32,18.40
2015,08,11,00,33,18.40
2015,08,11,00,34,18.40
2015,08,11,00,35,18.40
2015,08,11,00,36,18.30
2015,08,11,00,37,18.40
2015,08,11,00,38,18.30
2015,08,11,00,39,18.30
2015,08,11,00,40,18.30
2015,08,11,00,41,18.30
2015,08,11,00,42,18.30
2015,08,11,00,43,18.20
2015,08,11,00,44,18.20
2015,08,11,00,45,18.10
2015,08,11,00,46,18.00
2015,08,11,00,47,17.90
2015,08,11,00,48,17.90
2015,08,11,00,49,17.80
2015,08,11,00,50,17.70
2015,08,11,00,51,17.60
2015,08,11,00,52,17.50
2015,08,11,00,53,17.50
2015,08,11,00,54,17.40
2015,08,11,00,55,17.40
2015,08,11,00,56,17.40
2015,08,11,00,57,17.30
2015,08,11,00,58,17.30
2015,08,11,00,59,17.30
2015,08,11,01,00,17.30
2015,08,11,01,01,17.30
2015,08,11,01,02,17.30
2015,08,11,01,03,17.30
2015,08,11,01,04,17.30
2015,08,11,01,05,17.30
2015,08,11,01,06,17.30
2015,08,11,01,07,17.30
2015,08,11,01,08,17.20
2015,08,11,01,09,17.20
2015,08,11,01,10,17.20
2015,08,11,01,11,17.20
2015,08,11,01,12,17.20
2015,08,11,01,13,17.20
2015,08,11,01,14,17.20
2015,08,11,01,15,17.30
2015,08,11,01,16,17.30
2015,08,11,01,17,17.30
2015,08,11,01,18,17.20
2015,08,11,01,19,17.20
2015,08,11,01,20,17.20
2015,08,11,01,21,17.20
2015,08,11,01,22,17.20
2015,08,11,01,23,17.20
2015,08,11,01,24,17.20
2015,08,11,01,25,17.10
2015,08,11,01,26,17.10
2015,08,11,01,27,17.00
2015,08,11,01,28,17.00
2015,08,11,01,29,16.90
2015,08,11,01,30,16.80
2015,08,11,01,31,16.80
2015,08,11,01,32,16.70
2015,08,11,01,33,16.70
2015,08,11,01,34,16.60
2015,08,11,01,35,16.60
2015,08,11,01,36,16.60
2015,08,11,01,37,16.60
2015,08,11,01,38,16.60
2015,08,11,01,39,16.50
2015,08,11,01,40,16.50
2015,08,11,01,41,16.50
2015,08,11,01,42,16.50
2015,08,11,01,43,16.40
2015,08,11,01,44,16.40
2015,08,11,01,45,16.40
2015,08,11,01,46,16.40
2015,08,11,01,47,16.30
2015,08,11,01,48,16.30
2015,08,11,01,49,16.30
2015,08,11,01,50,16.30
2015,08,11,01,51,16.30
2015,08,11,01,52,16.30
2015,08,11,01,53,16.20
2015,08,11,01,54,16.20
2015,08,11,01,55,16.20
2015,08,11,01,56,16.20
2015,08,11,01,57,16.10
2015,08,11,01,58,16.10
2015,08,11,01,59,16.10
2015,08,11,02,00,16.00
2015,08,11,02,01,16.00
2015,08,11,02,02,15.90
2015,08,11,02,03,15.90
2015,08,11,02,04,15.90
2015,08,11,02,05,15.90
2015,08,11,02,06,15.90
2015,08,11,02,07,15.90
2015,08,11,02,08,15.80
2015,08,11,02,09,15.80
2015,08,11,02,10,15.80
2015,08,11,02,11,15.80
2015,08,11,02,12,15.80
2015,08,11,02,13,15.80
2015,08,11,02,14,15.80
2015,08,11,02,15,15.70
2015,08,11,02,16,15.70
2015,08,11,02,17,15.70
2015,08,11,02,18,15.70
2015,08,11,02,19,15.70
2015,08,11,02,20,15.70
2015,08,11,02,21,15.70
2015,08,11,02,22,15.70
2015,08,11,02,23,15.70
2015,08,11,02,24,15.70
2015,08,11,02,25,15.70
2015,08,11,02,26,15.70
2015,08,11,02,27,15.70
2015,08,11,02,28,15.70
2015,08,11,02,29,15.70
2015,08,11,02,30,15.70
2015,08,11,02,31,15.70
2015,08,11,02,32,15.70
2015,08,11,02,33,15.70
2015,08,11,02,34,15.70
2015,08,11,02,35,15.70
2015,08,11,02,36,15.70
2015,08,11,02,37,15.70
2015,08,11,02,38,15.70
2015,08,11,02,39,15.70
2015,08,11,02,40,15.70
2015,08,11,02,41,15.70
2015,08,11,02,42,15.70
2015,08,11,02,43,15.70
2015,08,11,02,44,15.70
2015,08,11,02,45,15.70
2015,08,11,02,46,15.70
2015,08,11,02,47,15.70
2015,08,11,02,48,15.70
2015,08,11,02,49,15.70
2015,08,11,02,50,15.70
2015,08,11,02,51,15.70
2015,08,11,02,52,15.70
2015,08,11,02,53,15.70
2015,08,11,02,54,15.70
2015,08,11,02,55,15.70
2015,08,11,02,56,15.70
2015,08,11,02,57,15.60
2015,08,11,02,58,15.60
2015,08,11,02,59,15.60
2015,08,11,03,00,15.60
2015,08,11,03,01,15.60
2015,08,11,03,02,15.60
2015,08,11,03,03,15.60
2015,08,11,03,04,15.60
2015,08,11,03,05,15.60
2015,08,11,03,06,15.60
2015,08,11,03,07,15.60
2015,08,11,03,08,15.60
2015,08,11,03,09,15.50
2015,08,11,03,10,15.60
2015,08,11,03,11,15.60
2015,08,11,03,12,15.60
2015,08,11,03,13,15.50
2015,08,11,03,14,15.50
2015,08,11,03,15,15.50
2015,08,11,03,16,15.50
2015,08,11,03,17,15.50
2015,08,11,03,18,15.50
2015,08,11,03,19,15.50
2015,08,11,03,20,15.50
2015,08,11,03,21,15.50
2015,08,11,03,22,15.40
2015,08,11,03,23,15.50
2015,08,11,03,24,15.40
2015,08,11,03,25,15.40
2015,08,11,03,26,15.40
2015,08,11,03,27,15.40
2015,08,11,03,28,15.40
2015,08,11,03,29,15.50
2015,08,11,03,30,15.60
2015,08,11,03,31,15.60
2015,08,11,03,32,15.60
2015,08,11,03,33,15.70
2015,08,11,03,34,15.70
2015,08,11,03,35,15.70
2015,08,11,03,36,15.80
2015,08,11,03,37,15.70
2015,08,11,03,38,15.70
2015,08,11,03,39,15.70
2015,08,11,03,40,15.70
2015,08,11,03,41,15.70
2015,08,11,03,42,15.70
2015,08,11,03,43,15.70
2015,08,11,03,44,15.80
2015,08,11,03,45,15.80
2015,08,11,03,46,15.80
2015,08,11,03,47,15.70
2015,08,11,03,48,15.70
2015,08,11,03,49,15.70
2015,08,11,03,50,15.70
2015,08,11,03,51,15.60
2015,08,11,03,52,15.60
2015,08,11,03,53,15.60
2015,08,11,03,54,15.50
2015,08,11,03,55,15.50
2015,08,11,03,56,15.50
2015,08,11,03,57,15.50
2015,08,11,03,58,15.50
2015,08,11,03,59,15.40
2015,08,11,04,00,15.40
2015,08,11,04,01,15.40
2015,08,11,04,02,15.30
2015,08,11,05,02,14.80
2015,08,11,05,03,14.80
2015,08,11,05,04,14.80
2015,08,11,05,05,14.80
2015,08,11,05,06,14.80
2015,08,11,05,07,14.80
2015,08,11,05,08,14.80
2015,08,11,05,09,14.80
2015,08,11,05,10,14.80
2015,08,11,05,11,14.80
2015,08,11,05,12,14.80
2015,08,11,05,13,14.80
2015,08,11,05,14,14.80
2015,08,11,05,15,14.80
2015,08,11,05,16,14.80
2015,08,11,05,17,14.80
2015,08,11,05,18,14.80
2015,08,11,05,19,14.80
2015,08,11,05,20,14.80
2015,08,11,05,21,14.80
2015,08,11,05,22,14.70
2015,08,11,05,23,14.70
2015,08,11,05,24,14.70
2015,08,11,05,25,14.70
2015,08,11,05,26,14.70
2015,08,11,05,27,14.70
2015,08,11,05,28,14.70
2015,08,11,05,29,14.70
2015,08,11,05,30,14.70
2015,08,11,05,31,14.70
2015,08,11,05,32,14.70
2015,08,11,05,33,14.70
2015,08,11,05,34,14.70
2015,08,11,05,35,14.70
2015,08,11,05,36,14.60
2015,08,11,05,37,14.60
2015,08,11,05,38,14.60
2015,08,11,05,39,14.60
2015,08,11,05,40,14.50
2015,08,11,05,41,14.50
2015,08,11,05,42,14.40
2015,08,11,05,43,14.40
2015,08,11,05,44,14.40
2015,08,11,05,45,14.40
2015,08,11,05,46,14.40
2015,08,11,05,47,14.40
2015,08,11,05,48,14.40
2015,08,11,05,49,14.40
2015,08,11,05,50,14.40
2015,08,11,05,51,14.40
2015,08,11,05,52,14.40
2015,08,11,05,53,14.40
2015,08,11,05,54,14.40
2015,08,11,05,55,14.40
2015,08,11,05,56,14.40
2015,08,11,05,57,14.40
2015,08,11,05,58,14.40
2015,08,11,05,59,14.40
2015,08,11,06,00,14.40
2015,08,11,06,01,14.40
2015,08,11,06,02,14.40
2015,08,11,06,03,14.40
2015,08,11,06,04,14.50
2015,08,11,06,05,14.50
2015,08,11,06,06,14.50
2015,08,11,06,07,14.40
2015,08,11,06,08,14.40
2015,08,11,06,09,14.50
2015,08,11,06,10,14.40
2015,08,11,06,11,14.40
2015,08,11,06,12,14.40
2015,08,11,06,13,14.40
2015,08,11,06,14,14.50
2015,08,11,06,15,14.50
2015,08,11,06,16,14.60
2015,08,11,06,17,14.60
2015,08,11,06,18,14.60
2015,08,11,06,19,14.60
2015,08,11,06,20,14.60
2015,08,11,06,21,14.60
2015,08,11,06,22,14.50
2015,08,11,06,23,14.50
2015,08,11,06,24,14.50
2015,08,11,06,25,14.50
2015,08,11,06,26,14.40
2015,08,11,06,27,14.40
2015,08,11,06,28,14.40
2015,08,11,06,29,14.40
2015,08,11,06,30,14.40
2015,08,11,06,31,14.40
2015,08,11,06,32,14.40
2015,08,11,06,33,14.40
2015,08,11,06,34,14.40
2015,08,11,06,35,14.40
2015,08,11,06,36,14.40
2015,08,11,06,37,14.50
2015,08,11,06,38,14.50
2015,08,11,06,39,14.50
2015,08,11,06,40,14.50
2015,08,11,06,41,14.50
2015,08,11,06,42,14.50
2015,08,11,06,43,14.50
2015,08,11,06,44,14.60
2015,08,11,06,45,14.60
2015,08,11,06,46,14.60
2015,08,11,06,47,14.60
2015,08,11,06,48,14.60
2015,08,11,06,49,14.70
2015,08,11,06,50,14.70
2015,08,11,06,51,14.70
2015,08,11,06,52,14.70
2015,08,11,06,53,14.70
2015,08,11,06,54,14.60
2015,08,11,06,55,14.60
2015,08,11,06,56,14.60
2015,08,11,06,57,14.60
2015,08,11,06,58,14.60
2015,08,11,06,59,14.60
2015,08,11,07,00,14.60
2015,08,11,07,01,14.60
2015,08,11,07,02,14.70
2015,08,11,07,03,14.70
2015,08,11,07,04,14.70
2015,08,11,07,05,14.70
2015,08,11,07,06,14.80
2015,08,11,07,07,14.80
2015,08,11,07,08,14.80
2015,08,11,07,09,14.90
2015,08,11,07,10,15.00
2015,08,11,07,11,15.00
2015,08,11,07,12,15.10
2015,08,11,07,13,15.10
2015,08,11,07,14,15.10
2015,08,11,07,15,15.10
2015,08,11,07,16,15.10
2015,08,11,07,17,15.10
2015,08,11,07,18,15.10
2015,08,11,07,19,15.10
2015,08,11,07,20,15.10
2015,08,11,07,21,15.10
2015,08,11,07,22,15.20
2015,08,11,07,23,15.20
2015,08,11,07,24,15.30
2015,08,11,07,25,15.30
2015,08,11,07,26,15.40
2015,08,11,07,27,15.40
2015,08,11,07,28,15.40
2015,08,11,07,29,15.50
2015,08,11,07,30,15.60
2015,08,11,07,31,15.70
2015,08,11,07,32,15.80
2015,08,11,07,33,15.90
2015,08,11,07,34,16.00
2015,08,11,07,35,16.00
2015,08,11,07,36,16.10
2015,08,11,07,37,16.10
2015,08,11,07,38,16.20
2015,08,11,07,39,16.30
2015,08,11,07,40,16.30
2015,08,11,07,41,16.40
2015,08,11,07,42,16.40
2015,08,11,07,43,16.40
2015,08,11,07,44,16.40
2015,08,11,07,45,16.50
2015,08,11,07,46,16.60
2015,08,11,07,47,16.60
2015,08,11,07,48,16.70
2015,08,11,07,49,16.80
2015,08,11,07,50,16.80
2015,08,11,07,51,16.90
2015,08,11,07,52,16.90
2015,08,11,07,53,17.00
2015,08,11,07,54,17.00
2015,08,11,07,55,17.10
2015,08,11,07,56,17.10
2015,08,11,07,57,17.20
2015,08,11,07,58,17.20
2015,08,11,07,59,17.20
2015,08,11,08,00,17.20
2015,08,11,08,01,17.10
2015,08,11,08,02,17.00
2015,08,11,08,03,17.00
2015,08,11,08,04,17.00
2015,08,11,08,05,16.90
2015,08,11,08,06,16.90
2015,08,11,08,07,16.90
2015,08,11,08,08,16.90
2015,08,11,08,09,16.90
2015,08,11,08,10,16.90
2015,08,11,08,11,16.90
2015,08,11,08,12,16.90
2015,08,11,08,13,16.90
2015,08,11,08,14,17.00
2015,08,11,08,15,17.00
2015,08,11,08,16,17.10
2015,08,11,08,17,17.10
2015,08,11,08,18,17.10
2015,08,11,08,19,17.10
2015,08,11,08,20,17.10
2015,08,11,08,21,17.10
2015,08,11,08,22,17.00
2015,08,11,08,23,17.00
2015,08,11,08,24,17.00
2015,08,11,08,25,17.00
2015,08,11,08,26,17.10
2015,08,11,08,27,17.10
2015,08,11,08,28,17.10
2015,08,11,08,29,17.20
2015,08,11,08,30,17.30
2015,08,11,08,31,17.30
2015,08,11,08,32,17.30
2015,08,11,08,33,17.40
2015,08,11,08,34,17.40
2015,08,11,08,35,17.50
2015,08,11,08,36,17.50
2015,08,11,08,37,17.60
2015,08,11,08,38,17.60
2015,08,11,08,39,17.60
2015,08,11,08,40,17.70
2015,08,11,08,41,17.70
2015,08,11,08,42,17.70
2015,08,11,08,43,17.80
2015,08,11,08,44,17.90
2015,08,11,08,45,17.90
2015,08,11,08,46,18.00
2015,08,11,08,47,18.10
2015,08,11,08,48,18.20
2015,08,11,08,49,18.30
2015,08,11,08,50,18.30
2015,08,11,08,51,18.40
2015,08,11,08,52,18.40
2015,08,11,08,53,18.50
2015,08,11,08,54,18.50
2015,08,11,08,55,18.50
2015,08,11,08,56,18.60
2015,08,11,08,57,18.60
2015,08,11,08,58,18.70
2015,08,11,08,59,18.80
2015,08,11,09,00,18.80
2015,08,11,09,01,18.90
2015,08,11,09,02,18.90
2015,08,11,09,03,19.00
2015,08,11,09,04,19.00
2015,08,11,09,05,19.10
2015,08,11,09,06,19.10
2015,08,11,09,07,19.20
2015,08,11,09,08,19.20
2015,08,11,09,09,19.30
2015,08,11,09,10,19.30
2015,08,11,09,11,19.40
2015,08,11,09,12,19.50
2015,08,11,09,13,19.60
2015,08,11,09,14,19.60
2015,08,11,09,15,19.70
2015,08,11,09,16,19.80
2015,08,11,09,17,19.80
2015,08,11,09,18,19.90
2015,08,11,09,19,20.00
2015,08,11,09,20,20.00
2015,08,11,09,21,20.10
2015,08,11,09,22,20.10
2015,08,11,09,23,20.20
2015,08,11,09,24,20.30
2015,08,11,09,25,20.30
2015,08,11,09,26,20.30
2015,08,11,09,27,20.30
2015,08,11,09,28,20.30
2015,08,11,09,29,20.30
2015,08,11,09,30,20.30
2015,08,11,09,31,20.20
2015,08,11,09,32,20.30
2015,08,11,09,33,20.30
2015,08,11,09,34,20.30
2015,08,11,09,35,20.40
2015,08,11,09,36,20.40
2015,08,11,09,37,20.50
2015,08,11,09,38,20.60
2015,08,11,09,39,20.60
2015,08,11,09,40,20.60
2015,08,11,09,41,20.60
2015,08,11,09,42,20.60
2015,08,11,09,43,20.60
2015,08,11,09,44,20.50
2015,08,11,09,45,20.50
2015,08,11,09,46,20.50
2015,08,11,09,47,20.50
2015,08,11,09,48,20.50
2015,08,11,09,49,20.50
2015,08,11,09,50,20.60
2015,08,11,09,51,20.60
2015,08,11,09,52,20.70
2015,08,11,09,53,20.70
2015,08,11,09,54,20.60
2015,08,11,09,55,20.50
2015,08,11,09,56,20.40
2015,08,11,09,57,20.20
2015,08,11,09,58,20.20
2015,08,11,09,59,20.10
2015,08,11,10,00,20.10
2015,08,11,10,01,20.10
2015,08,11,10,02,20.10
2015,08,11,10,03,20.20
2015,08,11,10,04,20.30
2015,08,11,10,05,20.50
2015,08,11,10,06,20.50
2015,08,11,10,07,20.60
2015,08,11,10,08,20.70
2015,08,11,10,09,20.70
2015,08,11,10,10,20.70
2015,08,11,10,11,20.70
2015,08,11,10,12,20.80
2015,08,11,10,13,20.80
2015,08,11,10,14,20.90
2015,08,11,10,15,21.00
2015,08,11,10,16,21.10
2015,08,11,10,17,21.10
2015,08,11,10,18,21.20
2015,08,11,10,19,21.30
2015,08,11,10,20,21.30
2015,08,11,10,21,21.30
2015,08,11,10,22,21.20
2015,08,11,10,23,21.20
2015,08,11,10,24,21.20
2015,08,11,10,25,21.20
2015,08,11,10,26,21.20
2015,08,11,10,27,21.20
2015,08,11,10,28,21.20
2015,08,11,10,29,21.20
2015,08,11,10,30,21.20
2015,08,11,10,31,21.20
2015,08,11,10,32,21.30
2015,08,11,10,33,21.30
2015,08,11,10,34,21.30
2015,08,11,10,35,21.30
2015,08,11,10,36,21.30
2015,08,11,10,37,21.40
2015,08,11,10,38,21.40
2015,08,11,10,39,21.30
2015,08,11,10,40,21.30
2015,08,11,10,41,21.30
2015,08,11,10,42,21.30
2015,08,11,10,43,21.30
2015,08,11,10,44,21.30
2015,08,11,10,45,21.40
2015,08,11,10,46,21.40
2015,08,11,10,47,21.50
2015,08,11,10,48,21.50
2015,08,11,10,49,21.60
2015,08,11,10,50,21.60
2015,08,11,10,51,21.70
2015,08,11,10,52,21.80
2015,08,11,10,53,21.90
2015,08,11,10,54,22.00
2015,08,11,10,55,22.10
2015,08,11,10,56,22.10
2015,08,11,10,57,22.10
2015,08,11,10,58,22.20
2015,08,11,10,59,22.20
2015,08,11,11,00,22.20
2015,08,11,11,01,22.10
2015,08,11,11,02,22.10
2015,08,11,11,03,22.20
2015,08,11,11,04,22.30
2015,08,11,11,05,22.30
2015,08,11,11,06,22.30
2015,08,11,11,07,22.30
2015,08,11,11,08,22.20
2015,08,11,11,09,22.20
2015,08,11,11,10,22.30
2015,08,11,11,11,22.40
2015,08,11,11,12,22.40
2015,08,11,11,13,22.50
2015,08,11,11,14,22.50
2015,08,11,11,15,22.60
2015,08,11,11,16,22.70
2015,08,11,11,17,22.80
2015,08,11,11,18,22.90
2015,08,11,11,19,22.90
2015,08,11,11,20,22.80
2015,08,11,11,21,22.70
2015,08,11,11,22,22.70
2015,08,11,11,23,22.70
2015,08,11,11,24,22.70
2015,08,11,11,25,22.70
2015,08,11,11,26,22.70
2015,08,11,11,27,22.70
2015,08,11,11,28,22.80
2015,08,11,11,29,22.90
2015,08,11,11,30,23.00
2015,08,11,11,31,23.10
2015,08,11,11,32,23.20
2015,08,11,11,33,23.40
2015,08,11,11,34,23.50
2015,08,11,11,35,23.60
2015,08,11,11,36,23.50
2015,08,11,11,37,23.50
2015,08,11,11,38,23.40
2015,08,11,11,39,23.40
2015,08,11,11,40,23.30
2015,08,11,11,41,23.30
2015,08,11,11,42,23.30
2015,08,11,11,43,23.30
2015,08,11,11,44,23.30
2015,08,11,11,45,23.40
2015,08,11,11,46,23.50
2015,08,11,11,47,23.50
2015,08,11,11,48,23.50
2015,08,11,11,49,23.50
2015,08,11,11,50,23.40
2015,08,11,11,51,23.40
2015,08,11,11,52,23.40
2015,08,11,11,53,23.40
2015,08,11,11,54,23.50
2015,08,11,11,55,23.50
2015,08,11,11,56,23.60
2015,08,11,11,57,23.70
2015,08,11,11,58,23.80
2015,08,11,11,59,23.80
2015,08,11,12,00,23.80
2015,08,11,12,01,23.90
2015,08,11,12,02,23.90
2015,08,11,12,03,24.00
2015,08,11,12,04,24.00
2015,08,11,12,05,24.00
2015,08,11,12,06,24.00
2015,08,11,12,07,24.10
2015,08,11,12,08,24.20
2015,08,11,12,09,24.20
2015,08,11,12,10,24.20
2015,08,11,12,11,24.30
2015,08,11,12,12,24.30
2015,08,11,12,13,24.40
2015,08,11,12,14,24.40
2015,08,11,12,15,24.40
2015,08,11,12,16,24.40
2015,08,11,12,17,24.40
2015,08,11,12,18,24.30
2015,08,11,12,19,24.20
2015,08,11,12,20,24.20
2015,08,11,12,21,24.10
2015,08,11,12,22,24.00
2015,08,11,12,23,23.90
2015,08,11,12,24,23.90
2015,08,11,12,25,23.90
2015,08,11,12,26,23.90
2015,08,11,12,27,24.00
2015,08,11,12,28,23.90
2015,08,11,12,29,24.00
2015,08,11,12,30,24.00
2015,08,11,12,31,24.10
2015,08,11,12,32,24.10
2015,08,11,12,33,24.20
2015,08,11,12,34,24.20
2015,08,11,12,35,24.20
2015,08,11,12,36,24.30
2015,08,11,12,37,24.40
2015,08,11,12,38,24.40
2015,08,11,12,39,24.50
2015,08,11,12,40,24.50
2015,08,11,12,41,24.60
2015,08,11,12,42,24.60
2015,08,11,12,43,24.70
2015,08,11,12,44,24.80
2015,08,11,12,45,24.80
2015,08,11,12,46,24.90
2015,08,11,12,47,24.90
2015,08,11,12,48,24.90
2015,08,11,12,49,25.00
2015,08,11,12,50,25.00
2015,08,11,12,51,25.10
2015,08,11,12,52,25.20
2015,08,11,12,53,25.30
2015,08,11,12,54,25.40
2015,08,11,12,55,25.50
2015,08,11,12,56,25.70
2015,08,11,12,57,25.70
2015,08,11,12,58,25.70
2015,08,11,12,59,25.60
2015,08,11,13,00,25.50
2015,08,11,13,01,25.50
2015,08,11,13,02,25.40
2015,08,11,13,03,25.40
2015,08,11,13,04,25.40
2015,08,11,13,05,25.40
2015,08,11,13,06,25.40
2015,08,11,13,07,25.40
2015,08,11,13,08,25.40
2015,08,11,13,09,25.40
2015,08,11,13,10,25.40
2015,08,11,13,11,25.50
2015,08,11,13,12,25.60
2015,08,11,13,13,25.70
2015,08,11,13,14,25.70
2015,08,11,13,15,25.70
2015,08,11,13,16,25.70
2015,08,11,13,17,25.60
2015,08,11,13,18,25.60
2015,08,11,13,19,25.70
2015,08,11,13,20,25.80
2015,08,11,13,21,25.80
2015,08,11,13,22,25.80
2015,08,11,13,23,25.80
2015,08,11,13,24,25.90
2015,08,11,13,25,26.00
2015,08,11,13,26,26.20
2015,08,11,13,27,26.30
2015,08,11,13,28,26.30
2015,08,11,13,29,26.40
2015,08,11,13,30,26.40
2015,08,11,13,31,26.50
2015,08,11,13,32,26.50
2015,08,11,13,33,26.50
2015,08,11,13,34,26.50
2015,08,11,13,35,26.60
2015,08,11,13,36,26.60
2015,08,11,13,37,26.70
2015,08,11,13,38,26.70
2015,08,11,13,39,26.70
2015,08,11,13,40,26.70
2015,08,11,13,41,26.80
2015,08,11,13,42,26.80
2015,08,11,13,43,26.80
2015,08,11,13,44,26.80
2015,08,11,13,45,26.80
2015,08,11,13,46,26.90
2015,08,11,13,47,26.80
2015,08,11,13,48,26.80
2015,08,11,13,49,26.70
2015,08,11,13,50,26.60
2015,08,11,13,51,26.50
2015,08,11,13,52,26.50
2015,08,11,13,53,26.50
2015,08,11,13,54,26.50
2015,08,11,13,55,26.40
2015,08,11,13,56,26.30
2015,08,11,13,57,26.30
2015,08,11,13,58,26.30
2015,08,11,13,59,26.30
2015,08,11,14,00,26.40
2015,08,11,14,01,26.40
2015,08,11,14,02,26.50
2015,08,11,14,03,26.50
2015,08,11,14,04,26.50
2015,08,11,14,05,26.40
2015,08,11,14,06,26.40
2015,08,11,14,07,26.40
2015,08,11,14,08,26.40
2015,08,11,14,09,26.40
2015,08,11,14,10,26.50
2015,08,11,14,11,26.60
2015,08,11,14,12,26.70
2015,08,11,14,13,26.70
2015,08,11,14,14,26.70
2015,08,11,14,15,26.80
2015,08,11,14,16,26.80
2015,08,11,14,17,26.80
2015,08,11,14,18,26.90
2015,08,11,14,19,27.00
2015,08,11,14,20,27.10
2015,08,11,14,21,27.10
2015,08,11,14,22,27.20
2015,08,11,14,23,27.20
2015,08,11,14,24,27.20
2015,08,11,14,25,27.20
2015,08,11,14,26,27.20
2015,08,11,14,27,27.30
2015,08,11,14,28,27.40
2015,08,11,14,29,27.50
2015,08,11,14,30,27.60
2015,08,11,14,31,27.70
2015,08,11,14,32,27.70
2015,08,11,14,33,27.70
2015,08,11,14,34,27.70
2015,08,11,14,35,27.70
2015,08,11,14,36,27.70
2015,08,11,14,37,27.80
2015,08,11,14,38,27.80
2015,08,11,14,39,27.90
2015,08,11,14,40,28.00
2015,08,11,14,41,28.00
2015,08,11,14,42,28.10
2015,08,11,14,43,28.20
2015,08,11,14,44,28.20
2015,08,11,14,45,28.30
2015,08,11,14,46,28.30
2015,08,11,14,47,28.30
2015,08,11,14,48,28.30
2015,08,11,14,49,28.20
2015,08,11,14,50,28.20
2015,08,11,14,51,28.20
2015,08,11,14,52,28.10
2015,08,11,14,53,28.10
2015,08,11,14,54,28.10
2015,08,11,14,55,28.10
2015,08,11,14,56,28.20
2015,08,11,14,57,28.20
2015,08,11,14,58,28.30
2015,08,11,14,59,28.30
2015,08,11,15,00,28.40
2015,08,11,15,01,28.50
2015,08,11,15,02,28.60
2015,08,11,15,03,28.60
2015,08,11,15,04,28.60
2015,08,11,15,05,28.60
2015,08,11,15,06,28.50
2015,08,11,15,07,28.50
2015,08,11,15,08,28.40
2015,08,11,15,09,28.40
2015,08,11,15,10,28.50
2015,08,11,15,11,28.50
2015,08,11,15,12,28.60
2015,08,11,15,13,28.70
2015,08,11,15,14,28.80
2015,08,11,15,15,29.00
2015,08,11,15,16,29.10
2015,08,11,15,17,29.20
2015,08,11,15,18,29.30
2015,08,11,15,19,29.40
2015,08,11,15,20,29.30
2015,08,11,15,21,29.20
2015,08,11,15,22,29.10
2015,08,11,15,23,29.00
2015,08,11,15,24,28.80
2015,08,11,15,25,28.70
2015,08,11,15,26,28.70
2015,08,11,15,27,28.60
2015,08,11,15,28,28.70
2015,08,11,15,29,28.70
2015,08,11,15,30,28.60
2015,08,11,15,31,28.60
2015,08,11,15,32,28.50
2015,08,11,15,33,28.50
2015,08,11,15,34,28.50
2015,08,11,15,35,28.60
2015,08,11,15,36,28.60
2015,08,11,15,37,28.60
2015,08,11,15,38,28.70
2015,08,11,15,39,28.70
2015,08,11,15,40,28.80
2015,08,11,15,41,28.90
2015,08,11,15,42,29.00
2015,08,11,15,43,29.10
2015,08,11,15,44,29.20
2015,08,11,15,45,29.20
2015,08,11,15,46,29.20
2015,08,11,15,47,29.20
2015,08,11,15,48,29.20
2015,08,11,15,49,29.20
2015,08,11,15,50,29.20
2015,08,11,15,51,29.20
2015,08,11,15,52,29.20
2015,08,11,15,53,29.20
2015,08,11,15,54,29.20
2015,08,11,15,55,29.20
2015,08,11,15,56,29.20
2015,08,11,15,57,29.20
2015,08,11,15,58,29.20
2015,08,11,15,59,29.20
2015,08,11,16,00,29.20
2015,08,11,16,01,29.10
2015,08,11,16,02,29.20
2015,08,11,16,03,29.20
2015,08,11,16,04,29.20
2015,08,11,16,05,29.30
2015,08,11,16,06,29.40
2015,08,11,16,07,29.40
2015,08,11,16,08,29.40
2015,08,11,16,09,29.40
2015,08,11,16,10,29.40
2015,08,11,16,11,29.30
2015,08,11,16,12,29.20
2015,08,11,16,13,29.20
2015,08,11,16,14,29.10
2015,08,11,16,15,29.10
2015,08,11,16,16,29.10
2015,08,11,16,17,29.20
2015,08,11,16,18,29.20
2015,08,11,16,19,29.20
2015,08,11,16,20,29.20
2015,08,11,16,21,29.30
2015,08,11,16,22,29.30
2015,08,11,16,23,29.30
2015,08,11,16,24,29.40
2015,08,11,16,25,29.40
2015,08,11,16,26,29.40
2015,08,11,16,27,29.40
2015,08,11,16,28,29.40
2015,08,11,16,29,29.30
2015,08,11,16,30,29.30
2015,08,11,16,31,29.40
2015,08,11,16,32,29.40
2015,08,11,16,33,29.40
2015,08,11,16,34,29.40
2015,08,11,16,35,29.40
2015,08,11,16,36,29.40
2015,08,11,16,37,29.40
2015,08,11,16,38,29.40
2015,08,11,16,39,29.30
2015,08,11,16,40,29.30
2015,08,11,16,41,29.30
2015,08,11,16,42,29.20
2015,08,11,16,43,29.30
2015,08,11,16,44,29.30
2015,08,11,16,45,29.40
2015,08,11,16,46,29.40
2015,08,11,16,47,29.40
2015,08,11,16,48,29.50
2015,08,11,16,49,29.60
2015,08,11,16,50,29.70
2015,08,11,16,51,29.80
2015,08,11,16,52,29.90
2015,08,11,16,53,29.90
2015,08,11,16,54,30.00
2015,08,11,16,55,30.10
2015,08,11,16,56,30.10
2015,08,11,16,57,30.20
2015,08,11,16,58,30.30
2015,08,11,16,59,30.30
2015,08,11,17,00,30.40
2015,08,11,17,01,30.40
2015,08,11,17,02,30.40
2015,08,11,17,03,30.40
2015,08,11,17,04,30.40
2015,08,11,17,05,30.40
2015,08,11,17,06,30.40
2015,08,11,17,07,30.40
2015,08,11,17,08,30.40
2015,08,11,17,09,30.30
2015,08,11,17,10,30.30
2015,08,11,17,11,30.30
2015,08,11,17,12,30.30
2015,08,11,17,13,30.40
2015,08,11,17,14,30.40
2015,08,11,17,15,30.40
2015,08,11,17,16,30.40
2015,08,11,17,17,30.40
2015,08,11,17,18,30.40
2015,08,11,17,19,30.30
2015,08,11,17,20,30.30
2015,08,11,17,21,30.40
2015,08,11,17,22,30.30
2015,08,11,17,23,30.30
2015,08,11,17,24,30.30
2015,08,11,17,25,30.30
2015,08,11,17,26,30.20
2015,08,11,17,27,30.20
2015,08,11,17,28,30.10
2015,08,11,17,29,30.10
2015,08,11,17,30,30.00
2015,08,11,17,31,30.00
2015,08,11,17,32,29.90
2015,08,11,17,33,29.90
2015,08,11,17,34,29.90
2015,08,11,17,35,29.90
2015,08,11,17,36,29.80
2015,08,11,17,37,29.70
2015,08,11,17,38,29.60
2015,08,11,17,39,29.50
2015,08,11,17,40,29.40
2015,08,11,17,41,29.20
2015,08,11,17,42,29.10
2015,08,11,17,43,29.00
2015,08,11,17,44,28.90
2015,08,11,17,45,28.80
2015,08,11,17,46,28.80
2015,08,11,17,47,28.70
2015,08,11,17,48,28.70
2015,08,11,17,49,28.50
2015,08,11,17,50,28.40
2015,08,11,17,51,28.20
2015,08,11,17,52,28.00
2015,08,11,17,53,27.90
2015,08,11,17,54,27.70
2015,08,11,17,55,27.50
2015,08,11,17,56,27.40
2015,08,11,17,57,27.30
2015,08,11,17,58,27.20
2015,08,11,17,59,27.20
2015,08,11,18,00,27.10
2015,08,11,18,01,27.10
2015,08,11,18,02,27.10
2015,08,11,18,03,27.10
2015,08,11,18,04,27.10
2015,08,11,18,05,27.10
2015,08,11,18,06,27.10
2015,08,11,18,07,27.10
2015,08,11,18,08,27.20
2015,08,11,18,09,27.20
2015,08,11,18,10,27.20
2015,08,11,18,11,27.30
2015,08,11,18,12,27.30
2015,08,11,18,13,27.40
2015,08,11,18,14,27.40
2015,08,11,18,15,27.40
2015,08,11,18,16,27.50
2015,08,11,18,17,27.60
2015,08,11,18,18,27.60